Weather History for KMAN - October, 2012

Change the Weather History Date:

Tuesday, October 23, 2012

  Actual Average (KBOI) Record (KBOI)
Temperature  
Mean Temperature 41 °F 50 °F  
Max Temperature 50 °F 61 °F 79 °F (1948)
Min Temperature 32 °F 39 °F 20 °F (1945)
Degree Days  
Heating Degree Days 24 15  
Month to date heating degree days 250  
Since 1 July heating degree days 371  
Cooling Degree Days 0 0  
Month to date cooling degree days 7  
Year to date cooling degree days 941  
Moisture  
Dew Point 30 °F    
Average Humidity 68    
Maximum Humidity 100    
Minimum Humidity 35    
Precipitation  
Precipitation 0.05 in 0.03 in 0.46 in (1897)
Month to date precipitation 0.51  
Year to date precipitation 8.59  
Snow  
Snow 0.00 in 0.00 in T in (2012)
Month to date snowfall 0.0  
Since 1 July snowfall 0.0  
Snow Depth -    
Sea Level Pressure  
Sea Level Pressure 29.88 in    
Wind  
Wind Speed 7 mph (SSW)    
Max Wind Speed 17 mph    
Max Gust Speed 23 mph    
Visibility 10 miles    
Events      
T = Trace of Precipitation, MM = Missing Value Source: NWS Daily Summary

Daily Weather History Graph

Daily Weather History Graph

Search for Another Location

Airport or City:

Trip Planner

Search our weather history database for the weather conditions in past years. The results will help you decide how hot, cold, wet, or windy it might be!

Date:

Astronomy

Oct. 23, 2012 Rise Set
Actual Time 8:10 AM MDT 6:49 PM MDT
Civil Twilight 7:41 AM MDT 7:18 PM MDT
Nautical Twilight 7:08 AM MDT 7:51 PM MDT
Astronomical Twilight 6:34 AM MDT 8:24 PM MDT
Moon 3:44 PM MDT (10/23) 1:57 AM MDT (10/23)
Length of Visible Light 11h 36m
Length of Day
10h 38m
Waxing Gibbous, 67% of the Moon is Illuminated
Oct 23
Waxing Gibbous
Oct 29
Full
Nov 6
Last Quarter
Nov 13
New
Nov 20
First Quarter

Hourly Weather History & Observations

Time (MDT) Temp. Windchill Dew Point Humidity Pressure Visibility Wind Dir Wind Speed Gust Speed Precip Events Conditions
12:15 AM 33.8 °F 30.8 °F 32.0 °F 93% 29.76 in 10.0 mi SE 3.5 mph - N/A   Overcast
12:35 AM 35.6 °F 31.7 °F 32.0 °F 87% 29.75 in 10.0 mi SE 4.6 mph - N/A   Overcast
12:55 AM 33.8 °F 28.6 °F 32.0 °F 93% 29.76 in 10.0 mi SE 5.8 mph - N/A   Mostly Cloudy
1:35 AM 32.0 °F 26.4 °F 32.0 °F 100% 29.75 in 10.0 mi SE 5.8 mph - N/A   Mostly Cloudy
2:15 AM 32.0 °F 26.4 °F 32.0 °F 100% 29.76 in 10.0 mi SE 5.8 mph - N/A   Mostly Cloudy
2:55 AM 35.6 °F 31.7 °F 32.0 °F 87% 29.76 in 10.0 mi SSE 4.6 mph - N/A   Overcast
3:15 AM 37.4 °F 33.8 °F 32.0 °F 81% 29.76 in 10.0 mi SSE 4.6 mph - N/A   Overcast
3:55 AM 37.4 °F 32.1 °F 32.0 °F 81% 29.76 in 10.0 mi South 6.9 mph - N/A   Overcast
4:15 AM 37.4 °F 31.4 °F 32.0 °F 81% 29.77 in 10.0 mi SSE 8.1 mph - N/A   Overcast
4:35 AM 39.2 °F 34.2 °F 35.6 °F 87% 29.76 in 5.0 mi South 6.9 mph 17.3 mph 0.02 in   Mostly Cloudy
4:55 AM 37.4 °F 32.8 °F 35.6 °F 93% 29.76 in 10.0 mi ESE 5.8 mph - 0.02 in   Mostly Cloudy
5:35 AM 37.4 °F 31.4 °F 35.6 °F 93% 29.75 in 10.0 mi East 8.1 mph - N/A   Overcast
5:55 AM 37.4 °F 33.8 °F 35.6 °F 93% 29.76 in 10.0 mi WNW 4.6 mph - N/A   Overcast
6:35 AM 37.4 °F 33.8 °F 35.6 °F 93% 29.77 in 10.0 mi East 4.6 mph - 0.03 in   Mostly Cloudy
6:55 AM 37.4 °F 34.9 °F 35.6 °F 93% 29.77 in 10.0 mi ESE 3.5 mph - 0.03 in   Overcast
7:15 AM 37.4 °F 32.8 °F 35.6 °F 93% 29.78 in 10.0 mi SE 5.8 mph - N/A   Overcast
7:35 AM 37.4 °F 31.4 °F 37.4 °F 100% 29.77 in 10.0 mi South 8.1 mph - N/A   Overcast
9:15 AM 37.4 °F 32.8 °F 35.6 °F 93% 29.84 in 10.0 mi SW 5.8 mph - N/A   Overcast
9:55 AM 41.0 °F 33.9 °F 35.6 °F 81% 29.86 in 10.0 mi WSW 12.7 mph 17.3 mph N/A   Mostly Cloudy
10:15 AM 41.0 °F 35.2 °F 33.8 °F 76% 29.87 in 10.0 mi WSW 9.2 mph - N/A   Mostly Cloudy
10:35 AM 41.0 °F 36.4 °F 33.8 °F 76% 29.87 in 10.0 mi West 6.9 mph - N/A   Mostly Cloudy
10:55 AM 41.0 °F 35.8 °F 32.0 °F 70% 29.88 in 10.0 mi WSW 8.1 mph - N/A   Mostly Cloudy
11:15 AM 44.6 °F 38.8 °F 32.0 °F 61% 29.89 in 10.0 mi SW 11.5 mph - N/A   Mostly Cloudy
11:35 AM 46.4 °F 40.4 °F 32.0 °F 57% 29.89 in 10.0 mi West 13.8 mph 20.7 mph N/A   Scattered Clouds
11:55 AM 46.4 °F 40.1 °F 30.2 °F 53% 29.90 in 10.0 mi West 15.0 mph 20.7 mph N/A   Mostly Cloudy
12:15 PM 46.4 °F 39.8 °F 30.2 °F 53% 29.90 in 10.0 mi West 16.1 mph - N/A   Mostly Cloudy
12:35 PM 48.2 °F - 28.4 °F 46% 29.91 in 10.0 mi West 16.1 mph 21.9 mph N/A   Mostly Cloudy
12:55 PM 48.2 °F - 28.4 °F 46% 29.91 in 10.0 mi WSW 16.1 mph 21.9 mph N/A   Mostly Cloudy
1:15 PM 48.2 °F - 26.6 °F 43% 29.92 in 10.0 mi West 13.8 mph 23.0 mph N/A   Mostly Cloudy
1:35 PM 48.2 °F - 24.8 °F 40% 29.92 in 10.0 mi West 10.4 mph 20.7 mph N/A   Partly Cloudy
1:55 PM 48.2 °F - 24.8 °F 40% 29.92 in 10.0 mi West 17.3 mph 21.9 mph N/A   Scattered Clouds
2:15 PM 50.0 °F - 24.8 °F 37% 29.92 in 10.0 mi West 15.0 mph 19.6 mph N/A   Partly Cloudy
2:55 PM 50.0 °F - 23.0 °F 35% 29.92 in 10.0 mi West 16.1 mph 21.9 mph N/A   Clear
3:15 PM 48.2 °F - 23.0 °F 37% 29.92 in 10.0 mi WNW 11.5 mph - N/A   Partly Cloudy
3:35 PM 48.2 °F - 23.0 °F 37% 29.92 in 10.0 mi WNW 9.2 mph - N/A   Partly Cloudy
3:55 PM 50.0 °F - 24.8 °F 37% 29.92 in 10.0 mi West 11.5 mph - N/A   Scattered Clouds
4:15 PM 50.0 °F - 23.0 °F 35% 29.92 in 10.0 mi West 8.1 mph 17.3 mph N/A   Scattered Clouds
4:35 PM 50.0 °F - 23.0 °F 35% 29.92 in 10.0 mi West 12.7 mph 16.1 mph N/A   Clear
4:55 PM 48.2 °F - 23.0 °F 37% 29.93 in 10.0 mi NW 5.8 mph - N/A   Partly Cloudy
5:15 PM 50.0 °F - 23.0 °F 35% 29.93 in 10.0 mi NW 6.9 mph - N/A   Mostly Cloudy
5:35 PM 48.2 °F - 23.0 °F 37% 29.94 in 10.0 mi NNW 5.8 mph - N/A   Scattered Clouds
5:55 PM 48.2 °F - 23.0 °F 37% 29.94 in 10.0 mi NNW 5.8 mph - N/A   Overcast
6:15 PM 48.2 °F - 23.0 °F 37% 29.94 in 10.0 mi NNW 3.5 mph - N/A   Scattered Clouds
6:35 PM 48.2 °F - 23.0 °F 37% 29.94 in 10.0 mi Calm Calm - N/A   Partly Cloudy
6:55 PM 44.6 °F - 26.6 °F 49% 29.95 in 10.0 mi Calm Calm - N/A   Scattered Clouds
7:15 PM 42.8 °F - 26.6 °F 53% 29.95 in 10.0 mi Calm Calm - N/A   Mostly Cloudy
7:35 PM 41.0 °F - 28.4 °F 61% 29.96 in 10.0 mi Calm Calm - N/A   Overcast
7:55 PM 39.2 °F 35.9 °F 30.2 °F 70% 29.97 in 10.0 mi SSW 4.6 mph - N/A   Overcast
8:15 PM 39.2 °F 35.9 °F 28.4 °F 65% 29.97 in 10.0 mi SE 4.6 mph - N/A   Scattered Clouds
8:35 PM 39.2 °F 35.0 °F 28.4 °F 65% 29.97 in 10.0 mi SE 5.8 mph - N/A   Clear
8:55 PM 37.4 °F 33.8 °F 30.2 °F 75% 29.97 in 10.0 mi SE 4.6 mph - N/A   Clear
9:15 PM 35.6 °F 30.7 °F 30.2 °F 81% 29.97 in 10.0 mi SE 5.8 mph - N/A   Clear
9:35 PM 35.6 °F 29.9 °F 30.2 °F 81% 29.97 in 10.0 mi SE 6.9 mph - N/A   Clear
9:55 PM 35.6 °F 30.7 °F 30.2 °F 81% 29.97 in 10.0 mi SE 5.8 mph - N/A   Clear
10:15 PM 35.6 °F 31.7 °F 30.2 °F 81% 29.98 in 10.0 mi SSE 4.6 mph - N/A   Clear
10:35 PM 33.8 °F 27.7 °F 30.2 °F 87% 29.98 in 10.0 mi SE 6.9 mph - N/A   Clear
10:55 PM 35.6 °F 29.9 °F 30.2 °F 81% 29.98 in 10.0 mi SE 6.9 mph - N/A   Clear
11:15 PM 35.6 °F 29.2 °F 32.0 °F 87% 29.99 in 10.0 mi SE 8.1 mph - N/A   Clear
11:35 PM 35.6 °F 29.2 °F 32.0 °F 87% 29.99 in 10.0 mi SE 8.1 mph - N/A   Clear
11:55 PM 33.8 °F 27.0 °F 32.0 °F 93% 29.99 in 10.0 mi SSE 8.1 mph - N/A   Clear